San Francisco, CA

5:40 AM PDT on September 25, 2016 (GMT -0700)
San Francisco International

Weather History for KSFO - March, 2014

Change the Weather History Date:

Friday, March 7, 2014

  Actual Average Record
Temperature  
Mean Temperature 57 °F 54 °F  
Max Temperature 64 °F 62 °F 77 °F (1953)
Min Temperature 49 °F 47 °F 35 °F (1956)
Degree Days  
Heating Degree Days 8 11  
Month to date heating degree days 50 77  
Since 1 July heating degree days 1595 1883  
Cooling Degree Days 0 0  
Month to date cooling degree days 0 0  
Year to date cooling degree days 0 0  
Growing Degree Days 6 (Base 50)    
Moisture  
Dew Point 50 °F    
Average Humidity 76    
Maximum Humidity 100    
Minimum Humidity 52    
Precipitation  
Precipitation 0.00 in 0.11 in 0.63 in (1968)
Month to date precipitation 0.41 0.83  
Year to date precipitation 4.18 9.08  
Since 1 July precipitation 5.67  
Sea Level Pressure  
Sea Level Pressure 30.15 in    
Wind  
Wind Speed 11 mph (WNW)    
Max Wind Speed 22 mph    
Max Gust Speed 25 mph    
Visibility 10 miles    
Events      
T = Trace of Precipitation, MM = Missing Value Source: NWS Daily Summary

Daily Weather History Graph

Daily Weather History Graph

Search for Another Location

Airport or City:

Trip Planner

Search our weather history database for the weather conditions in past years. The results will help you decide how hot, cold, wet, or windy it might be!

Date:

Astronomy

Mar. 07, 2014 Rise Set
Actual Time 6:32 AM PST 6:09 PM PST
Civil Twilight 6:06 AM PST 6:35 PM PST
Nautical Twilight 5:35 AM PST 7:05 PM PST
Astronomical Twilight 5:05 AM PST 7:36 PM PST
Moon 10:36 AM PST (3/7) 12:12 AM PST (3/7)
Length of Visible Light 12h 29m
Length of Day
11h 37m
Waxing Crescent, 43% of the Moon is Illuminated
Mar 7
Waxing Crescent
Mar 8
First Quarter
Mar 16
Full
Mar 23
Last Quarter
Mar 30
New

Hourly Weather History & Observations

Time (PST) Temp. Dew Point Humidity Pressure Visibility Wind Dir Wind Speed Gust Speed Precip Events Conditions
12:56 AM 52.0 °F 51.1 °F 97% 30.19 in 10.0 mi West 12.7 mph - N/A   Partly Cloudy
1:56 AM 51.1 °F 51.1 °F 100% 30.18 in 7.0 mi West 9.2 mph - N/A   Clear
2:56 AM 51.1 °F 50.0 °F 96% 30.17 in 10.0 mi West 8.1 mph - N/A   Clear
3:56 AM 51.1 °F 50.0 °F 96% 30.16 in 10.0 mi WNW 9.2 mph - N/A   Clear
4:56 AM 50.0 °F 48.9 °F 96% 30.16 in 10.0 mi West 4.6 mph - N/A   Clear
5:56 AM 48.9 °F 46.9 °F 93% 30.17 in 10.0 mi West 5.8 mph - N/A   Partly Cloudy
6:56 AM 52.0 °F 48.0 °F 86% 30.17 in 10.0 mi WNW 4.6 mph - N/A   Mostly Cloudy
7:56 AM 54.0 °F 46.9 °F 77% 30.17 in 10.0 mi ENE 3.5 mph - N/A   Mostly Cloudy
8:56 AM 55.9 °F 51.1 °F 84% 30.18 in 10.0 mi NE 3.5 mph - N/A   Mostly Cloudy
9:56 AM 57.0 °F 48.9 °F 74% 30.19 in 10.0 mi Calm Calm - N/A   Mostly Cloudy
10:56 AM 57.9 °F 48.9 °F 72% 30.17 in 10.0 mi NE 5.8 mph - N/A   Mostly Cloudy
11:56 AM 61.0 °F 50.0 °F 67% 30.18 in 10.0 mi WNW 12.7 mph - N/A   Mostly Cloudy
12:56 PM 63.0 °F 45.0 °F 52% 30.16 in 10.0 mi WNW 11.5 mph - N/A   Scattered Clouds
1:56 PM 63.0 °F 48.0 °F 58% 30.14 in 10.0 mi WNW 13.8 mph - N/A   Scattered Clouds
2:56 PM 62.1 °F 48.9 °F 62% 30.13 in 10.0 mi West 17.3 mph - N/A   Scattered Clouds
3:56 PM 61.0 °F 48.9 °F 64% 30.12 in 10.0 mi WNW 17.3 mph - N/A   Partly Cloudy
4:56 PM 59.0 °F 50.0 °F 72% 30.11 in 10.0 mi West 17.3 mph - N/A   Scattered Clouds
5:56 PM 55.9 °F 51.1 °F 84% 30.12 in 10.0 mi West 21.9 mph - N/A   Scattered Clouds
6:36 PM 55.4 °F 51.8 °F 88% 30.12 in 10.0 mi West 16.1 mph - N/A   Scattered Clouds
6:56 PM 55.0 °F 52.0 °F 89% 30.13 in 10.0 mi West 19.6 mph - N/A   Scattered Clouds
7:56 PM 54.0 °F 51.1 °F 90% 30.14 in 10.0 mi WNW 18.4 mph - N/A   Partly Cloudy
8:56 PM 54.0 °F 51.1 °F 90% 30.14 in 10.0 mi West 17.3 mph - N/A   Scattered Clouds
9:56 PM 54.0 °F 50.0 °F 86% 30.15 in 10.0 mi West 13.8 mph - N/A   Clear
10:56 PM 54.0 °F 50.0 °F 86% 30.14 in 10.0 mi Variable 3.5 mph - N/A   Clear
11:56 PM 53.1 °F 50.0 °F 89% 30.14 in 10.0 mi West 4.6 mph - N/A   Clear